Flag for United Kingdom Weather past 2 weeks in Oxford, England, United Kingdom

Now
45 °F

Clear.


Feels Like: 41 °F
Forecast: 47 / 59 °F
Wind: 7 mph from Southwest

Location: Benson

Current Time: Oct 22, 2014 at 7:55:56 AM

Latest Report: Oct 22, 2014 at 6:50 AM


Visibility: 10 mi

Pressure: 30.24 "Hg

Humidity: 81%

Dew point: 39 °F

Location of OxfordLocation

Historic Weather in Oxford — Graph

°F

Oxford temperature yesterday

Maximum temperature yesterday: 57 °F (at 7:50 AM)
Minimum temperature yesterday: 45 °F (at 10:50 PM)
Average temperature yesterday: 52 °F

Past Weeks' High & Low Weather Summary

 TemperatureHumidityPressure
High66 °F (Oct 17, 12:50 PM)100% (Oct 11, 12:50 AM)30.24 "Hg (Oct 11, 12:50 AM)
Low37 °F (Oct 12, 1:50 AM)47% (Oct 21, 1:50 PM)29.30 "Hg (Oct 8, 1:50 PM)
Average54 °F85%29.70 "Hg
* Reported Oct 7 6:50 AM — Oct 22 6:50 AM, Oxford, Weather by CustomWeather, © 2014

Note: Actual official high and low records may vary slightly from our data, if they occured in-between our weather recording intervals... More about our weather records

Advertising

Oxford weather history for previous 24 hours

 ConditionsComfort  
Time TempWeatherWind HumidityBarometerVisibility
6:50 AM
Oct 22
45 °FClear.7 mph81%30.24 "Hg10 mi
5:50 AM45 °FClear.7 mph81%30.24 "Hg10 mi
4:50 AM45 °FPassing clouds.9 mph76%30.24 "HgN/A
3:50 AM45 °FPassing clouds.7 mph76%30.24 "HgN/A
2:50 AM45 °FPassing clouds.8 mph71%30.24 "HgN/A
1:50 AM45 °FClear.8 mph71%30.21 "Hg10 mi
12:50 AM45 °FClear.9 mph66%30.18 "Hg10 mi
11:50 PM
Oct 21
45 °FClear.6 mph71%30.18 "Hg10 mi
10:50 PM45 °FClear.8 mph71%30.15 "Hg10 mi
9:50 PM46 °FClear.8 mph66%30.09 "Hg10 mi
8:50 PM46 °FClear.9 mph66%30.07 "Hg10 mi
7:50 PM48 °FPassing clouds.13 mph66%30.01 "HgN/A
6:50 PM48 °FPassing clouds.10 mph66%29.98 "HgN/A
5:50 PM48 °FPassing clouds.16 mph62%29.92 "HgN/A
4:50 PM54 °FScattered showers. Passing clouds.21 mph51%29.86 "HgN/A
3:50 PM54 °FPassing clouds.18 mph54%29.83 "HgN/A
2:50 PM54 °FScattered showers. Scattered clouds.21 mph54%29.80 "HgN/A
1:50 PM55 °FPassing clouds.25 mph47%29.74 "HgN/A
12:50 PM55 °FPassing clouds.18 mph55%29.71 "HgN/A
11:50 AM54 °FScattered clouds.22 mph58%29.71 "HgN/A
10:50 AM54 °FPartly sunny.20 mph54%29.68 "HgN/A
9:50 AM54 °FPassing clouds.20 mph58%29.62 "HgN/A
8:50 AM57 °FScattered showers. Broken clouds.17 mph72%29.56 "HgN/A
7:50 AM57 °FLight rain. Passing clouds.17 mph82%29.53 "HgN/A
Weather by CustomWeather, © 2014

See weather overviewHow to use our weather pages